CST,Max TemperatureF,Mean TemperatureF,Min TemperatureF,Max Dew PointF,MeanDew PointF,Min DewpointF,Max Humidity, Mean Humidity, Min Humidity, Max Sea Level PressureIn, Mean Sea Level PressureIn, Min Sea Level PressureIn, Max VisibilityMiles, Mean VisibilityMiles, Min VisibilityMiles, Max Wind SpeedMPH, Mean Wind SpeedMPH, Max Gust SpeedMPH,PrecipitationIn, CloudCover, Events, WindDirDegrees
2013-11-1,59,50,41,41,38,36,86,67,47,29.99,29.82,29.67,10,10,10,21,9,31,0.00,1,,287
2013-11-2,55,47,38,37,34,30,85,62,38,30.21,30.14,29.99,10,10,10,16,8,30,0.00,1,,318
2013-11-3,58,46,34,38,35,30,82,63,43,30.18,30.06,29.91,10,10,10,28,14,35,0.00,0,,161
2013-11-4,58,57,55,52,46,39,83,71,59,30.10,29.99,29.89,10,10,8,23,12,33,0.08,7,Rain,182
2013-11-5,60,54,47,59,54,47,100,93,86,30.10,29.99,29.86,10,5,1,22,12,29,0.59,8,Rain,174
2013-11-6,47,40,33,44,34,30,100,84,67,30.35,30.16,29.92,10,10,5,21,10,32,0.21,6,Rain,313
2013-11-7,55,43,30,36,31,29,92,65,38,30.41,30.37,30.34,10,10,7,20,5,25,0.00,0,,276
2013-11-8,63,48,33,36,32,26,89,60,30,30.33,30.09,29.91,10,10,10,31,14,42,0.00,0,,177
2013-11-9,65,54,42,39,34,30,76,52,28,30.30,30.14,29.99,10,10,9,13,6,19,0.00,0,,302
2013-11-10,57,48,39,38,32,28,70,54,38,30.43,30.33,30.22,10,10,10,12,7,15,0.00,3,,111
2013-11-11,61,44,27,50,38,14,82,70,58,30.63,30.28,30.17,10,8,2,26,12,34,0.01,7,Rain,320
2013-11-12,35,26,17,16,12,8,77,56,35,30.89,30.78,30.67,10,10,10,23,8,29,0.00,0,,352
2013-11-13,47,33,19,22,16,12,84,55,26,30.69,30.45,30.19,10,10,10,21,12,27,0.00,0,,193
2013-11-14,53,43,33,28,25,22,69,52,35,30.18,30.06,29.98,10,10,10,21,12,27,0.00,1,,197
2013-11-15,57,50,42,45,38,28,86,68,49,29.97,29.86,29.74,10,10,8,21,11,27,0.00,3,,181
2013-11-16,68,59,49,59,55,46,93,78,63,29.73,29.53,29.42,10,9,5,33,20,45,0.01,7,Rain,190
2013-11-17,67,56,45,59,39,14,84,50,16,30.07,29.62,29.33,10,10,10,31,15,44,0.00,1,,261
2013-11-18,58,47,35,33,28,20,82,53,24,30.30,30.23,30.08,10,10,10,10,5,14,0.00,0,,282
2013-11-19,59,47,35,28,26,23,70,48,26,30.25,30.13,29.99,10,10,10,24,13,30,0.00,3,,154
2013-11-20,50,44,38,40,33,19,85,58,31,29.99,29.94,29.87,10,9,3,24,11,32,0.26,7,Rain-Thunderstorm,144
2013-11-21,50,39,27,47,37,25,93,82,71,30.43,30.16,29.97,10,6,2,23,11,28,0.15,8,Rain-Snow,357
2013-11-22,29,26,23,24,21,18,92,83,74,30.64,30.56,30.40,10,10,7,22,12,30,0.00,6,,351
2013-11-23,29,22,14,18,10,3,81,59,37,30.80,30.75,30.63,10,10,10,22,11,26,0.00,0,,6
2013-11-24,26,19,11,13,8,5,76,63,50,30.78,30.61,30.36,10,10,10,14,7,17,0.00,2,,146
2013-11-25,35,31,26,23,18,13,75,61,47,30.34,30.24,30.19,10,10,10,12,7,15,0.00,5,,222
2013-11-26,37,29,21,24,18,7,84,61,38,30.43,30.28,30.18,10,10,9,24,12,32,0.00,2,,344
2013-11-27,31,23,14,13,9,7,73,55,36,30.46,30.35,30.20,10,10,10,17,7,23,0.00,0,,263
2013-11-28,41,33,25,21,17,13,68,56,44,30.50,30.34,30.18,10,10,10,14,7,19,0.00,0,,327
2013-11-29,51,38,24,28,22,16,74,57,39,30.51,30.40,30.26,10,10,10,18,8,22,0.00,0,,139
2013-11-30,53,42,31,36,31,23,85,68,50,30.23,30.15,30.09,10,10,6,14,6,18,0.00,0,,197